Weather History for Decimomannu, Italy

Change the Weather History Date:

Friday, September 21, 2012

  Actual Average Record
Temperature  
Mean Temperature 69 °F -  
Max Temperature 81 °F 77 °F 99 °F (2014)
Min Temperature 57 °F 57 °F 51 °F (1998)
Cooling Degree Days 4    
Growing Degree Days 19 (Base 50)    
Moisture  
Dew Point 61 °F    
Average Humidity 72    
Maximum Humidity 88    
Minimum Humidity 45    
Precipitation  
Precipitation 0.00 in 0.06 in - ()
Sea Level Pressure  
Sea Level Pressure 30.08 in    
Wind  
Wind Speed 8 mph ()    
Max Wind Speed 21 mph    
Max Gust Speed -    
Visibility 8.0 miles    
Events      
Averages and records for this station are not official NWS values.
T = Trace of Precipitation, MM = Missing Value Source: Averaged Metar Reports

Daily Weather History Graph

Daily Weather History Graph

Search for Another Location

Airport:

Trip Planner

Search our weather history database for the weather conditions in past years. The results will help you decide how hot, cold, wet, or windy it might be!

Date:

Astronomy

Sep. 21, 2012 Rise Set
Actual Time 7:11 AM CEST 7:22 PM CEST
Civil Twilight 6:44 AM CEST 7:49 PM CEST
Nautical Twilight 6:12 AM CEST 8:20 PM CEST
Astronomical Twilight 5:40 AM CEST 8:52 PM CEST
Moon 1:13 PM CEST (9/21) 11:08 PM CEST (9/21)
Length of Visible Light 13h 04m
Length of Day
12h 11m
Waxing Crescent, 34% of the Moon is Illuminated
Sep 21
Waxing Crescent
Sep 22
First Quarter
Sep 30
Full
Oct 8
Last Quarter
Oct 15
New

Hourly Weather History & Observations

Time (CEST) Temp. Heat Index Dew Point Humidity Pressure Visibility Wind Dir Wind Speed Gust Speed Precip Events Conditions
12:55 AM 64.4 °F - 60.8 °F 88% 30.09 in - ENE 3.5 mph - N/A   Clear
1:55 AM 62.6 °F - 57.2 °F 82% 30.09 in - NE 3.5 mph - N/A   Clear
2:00 AM 62 °F - 58 °F 82% 30.11 in 6 mi NE 3.5 mph - -  
3:55 AM 59.0 °F - 55.4 °F 88% 30.09 in - ENE 1.2 mph - N/A   Clear
4:55 AM 59.0 °F - 55.4 °F 88% 30.09 in - Calm Calm - N/A   Clear
5:00 AM 59 °F - 55 °F 82% 30.11 in 9 mi Calm Calm - -  
7:55 AM 57.2 °F - 53.6 °F 88% 30.09 in 6.2 mi Calm Calm - N/A   Partly Cloudy
8:00 AM 57 °F - 53 °F 82% 30.12 in 7 mi Calm Calm - -   Scattered Clouds
8:55 AM 64.4 °F - 57.2 °F 77% 30.09 in 6.2 mi NNE 4.6 mph - N/A   Partly Cloudy
9:55 AM 66.2 °F - 55.4 °F 68% 30.09 in 6.2 mi ESE 8.1 mph - N/A   Partly Cloudy
10:55 AM 77.0 °F - 60.8 °F 57% 30.09 in 6.2 mi South 13.8 mph - N/A   Partly Cloudy
11:00 AM 77 °F - 61 °F 47% 30.12 in 12 mi South 13.8 mph - -   Scattered Clouds
11:55 AM 80.6 °F 81.1 °F 59.0 °F 48% 30.09 in 6.2 mi SSE 13.8 mph - N/A   Partly Cloudy
12:55 PM 80.6 °F 80.8 °F 57.2 °F 45% 30.09 in 6.2 mi SSE 16.1 mph - N/A   Partly Cloudy
1:55 PM 80.6 °F 81.8 °F 62.6 °F 54% 30.09 in - SSE 18.4 mph - N/A   Clear
2:00 PM 81 °F - 64 °F 46% 30.10 in 12 mi SSE 18.4 mph - -   Clear
2:55 PM 78.8 °F - 64.4 °F 61% 30.06 in - SSE 20.7 mph - N/A   Clear
3:55 PM 78.8 °F - 66.2 °F 65% 30.06 in - SSE 20.7 mph - N/A   Clear
4:55 PM 77.0 °F - 66.2 °F 69% 30.06 in - SE 17.3 mph - N/A   Clear
5:00 PM 78 °F - 67 °F 60% 30.08 in 12 mi SE 17.3 mph - -  
6:55 PM 73.4 °F - 68.0 °F 83% 30.04 in - SSE 16.1 mph - N/A   Clear
7:55 PM 71.6 °F - 64.4 °F 78% 30.04 in - SSE 13.8 mph - N/A   Clear
8:00 PM 72 °F - 64 °F 68% 30.06 in 9 mi SSE 13.8 mph - -  
8:55 PM 71.6 °F - 66.2 °F 83% 30.06 in - SSE 13.8 mph - N/A   Clear
9:55 PM 69.8 °F - 66.2 °F 88% 30.06 in - SSE 13.8 mph - N/A   Clear
10:55 PM 71.6 °F - 66.2 °F 83% 30.06 in - SSE 15.0 mph - N/A   Clear
11:00 PM 71 °F - 67 °F 82% 30.07 in 9 mi SSE 15.0 mph - -   Scattered Clouds
11:55 PM 71.6 °F - 66.2 °F 83% 30.06 in 6.2 mi SSE 11.5 mph - N/A   Partly Cloudy